Location: Austin
(30.3000°N, 97.7500°W)
Time: 05:47:13
(UTC-05:00)

Cosmos 1441 Rocket - Pass Details

Date: 16 June 2025
Orbit: 436 x 463 km, 81.1° (Epoch: 07 July)

Event Time Altitude Azimuth Distance (km) Brightness Sun altitude
Exits shadow 05:37:45 -1° 177° (S) 2,545 6.4 -10.3°
Rises 05:37:57 0° 177° (S) 2,459 6.3 -10.2°
Reaches altitude 10° 05:40:03 10° 172° (S) 1,594 5.4 -9.9°
Maximum altitude 05:43:26 51° 96° (E) 587 3.8 -9.3°
Drops below altitude 10° 05:46:52 10° 19° (NNE) 1,616 6.6 -8.6°
Sets 05:49:00 0° 14° (NNE) 2,497 7.5 -8.3°
